EXPRESS AMU-7

Last updated on Tue Sep 22 2026 00:03:15 GMT+0000 (Coordinated Universal Time)

1 50001U 21123A 26264.16129590 -.00000246 00000+0 00000+0 0 9999 2 50001 0.0327 255.4257 0000298 220.9655 86.7364 1.00272730 17507
UTC large
Height (km)
Speed (km/s)
/
Latitude / Longitude
Inclination (degrees)
Orbital Period (minutes)
Azimuth
Elevation
Range (km)
Doppler Factor

Next 0 passes for location: London (51.5072 / 0.1276)

No passes found over London.
EXPRESS AMU-7